QPF
0.14 0.16 0.16 0.15 0.14 0.18 0.30 0.36 0.36 0.25 0.10 0.04 0.04 0.05 0.04 0.04 0.04 0.02 0.01 0.00 0.00 0.00 0.01 0.01 0.02 0.03 0.04 0.05 0.05 0.03 0.01 0.01 0.00 0.00 0.00 0.00 0.00 0.00
0.23 0.21 0.19 0.17 0.15 0.17 0.21 0.23 0.23 0.16 0.07 0.03 0.03 0.05 0.06 0.07 0.05 0.02 0.00 0.00 0.00 0.00 0.01 0.01 0.02 0.03 0.03 0.02 0.02 0.01 0.00 0.00 0.00 0.00 0.00 0.00 0.00 0.00
0.21 0.21 0.20 0.19 0.17 0.14 0.13 0.13 0.14 0.12 0.05 0.04 0.05 0.04 0.05 0.05 0.05 0.02 0.00 0.00 0.00 0.00 0.01 0.00 0.00 0.01 0.01 0.01 0.00 0.00 0.00 0.00 0.00 0.00 0.00 0.00 0.00 0.00
0.14 0.16 0.16 0.14 0.11 0.09 0.08 0.07 0.08 0.09 0.06 0.05 0.08 0.07 0.04 0.03 0.04 0.03 0.01 0.00 0.00 0.00 0.00 0.00 0.00 0.00 0.00 0.00 0.00 0.00 0.00 0.00 0.00 0.00 0.00 0.00 0.00 0.00
0.08 0.08 0.06 0.04 0.03 0.02 0.02 0.02 0.03 0.05 0.05 0.05 0.08 0.08 0.04 0.04 0.05 0.03 0.01 0.01 0.00 0.00 0.00 0.00 0.00 0.00 0.00 0.00 0.00 0.00 0.00 0.00 0.00 0.00 0.00 0.00 0.00 0.00
0.04 0.03 0.01 0.01 0.00 0.00 0.00 0.00 0.01 0.03 0.05 0.06 0.10 0.11 0.07 0.07 0.07 0.05 0.03 0.02 0.01 0.01 0.01 0.00 0.00 0.00 0.00 0.00 0.00 0.00 0.00 0.00 0.00 0.00 0.00 0.00 0.00 0.00
0.02 0.01 0.00 0.00 0.00 0.00 0.00 0.00 0.00 0.02 0.04 0.07 0.11 0.15 0.14 0.12 0.11 0.09 0.06 0.04 0.02 0.01 0.01 0.01 0.01 0.02 0.01 0.01 0.01 0.00 0.00 0.00 0.00 0.00 0.00 0.00 0.00 0.00
0.00 0.00 0.00 0.00 0.00 0.00 0.00 0.00 0.00 0.00 0.03 0.07 0.11 0.16 0.18 0.20 0.20 0.16 0.11 0.06 0.03 0.01 0.01 0.01 0.02 0.03 0.02 0.01 0.01 0.01 0.01 0.00 0.00 0.00 0.00 0.00 0.00 0.00
0.00 0.00 0.00 0.00 0.00 0.00 0.00 0.00 0.00 0.00 0.01 0.03 0.04 0.05 0.08 0.13 0.19 0.19 0.14 0.09 0.06 0.03 0.01 0.01 0.01 0.02 0.02 0.02 0.02 0.02 0.01 0.01 0.01 0.01 0.01 0.01 0.01 0.01
0.00 0.00 0.00 0.00 0.00 0.00 0.00 0.00 0.00 0.00 0.00 0.00 0.00 0.01 0.01 0.03 0.06 0.10 0.10 0.07 0.04 0.03 0.02 0.01 0.02 0.02 0.02 0.02 0.02 0.02 0.01 0.01 0.02 0.02 0.02 0.03 0.03 0.03
0.00 0.00 0.00 0.00 0.00 0.00 0.00 0.00 0.00 0.00 0.00 0.00 0.00 0.00 0.00 0.00 0.01 0.02 0.02 0.03 0.03 0.03 0.02 0.01 0.02 0.03 0.04 0.05 0.07 0.05 0.03 0.02 0.02 0.02 0.02 0.02 0.03 0.03
0.00 0.00 0.00 0.00 0.00 0.00 0.00 0.00 0.00 0.00 0.00 0.00 0.00 0.00 0.00 0.00 0.00 0.01 0.01 0.01 0.01 0.02 0.02 0.02 0.03 0.06 0.09 0.16 0.19 0.17 0.13 0.08 0.05 0.03 0.02 0.02 0.02 0.02
0.00 0.00 0.00 0.00 0.00 0.00 0.00 0.00 0.00 0.00 0.00 0.00 0.00 0.00 0.01 0.00 0.00 0.00 0.00 0.00 0.00 0.01 0.01 0.01 0.01 0.04 0.10 0.26 0.43 0.39 0.29 0.23 0.17 0.10 0.05 0.02 0.01 0.01
0.00 0.00 0.00 0.00 0.00 0.00 0.00 0.00 0.00 0.00 0.00 0.00 0.00 0.00 0.00 0.00 0.00 0.00 0.00 0.00 0.00 0.00 0.00 0.00 0.00 0.01 0.03 0.12 0.27 0.35 0.33 0.27 0.26 0.25 0.15 0.08 0.03 0.01
0.00 0.00 0.00 0.00 0.00 0.00 0.00 0.00 0.00 0.00 0.00 0.00 0.00 0.00 0.00 0.00 0.00 0.00 0.00 0.00 0.00 0.00 0.00 0.00 0.00 0.01 0.02 0.06 0.12 0.17 0.19 0.19 0.25 0.30 0.26 0.17 0.10 0.05
0.00 0.00 0.00 0.00 0.00 0.00 0.00 0.00 0.00 0.00 0.00 0.00 0.00 0.00 0.00 0.00 0.00 0.00 0.00 0.00 0.01 0.00 0.00 0.00 0.00 0.00 0.01 0.04 0.05 0.07 0.07 0.08 0.11 0.17 0.21 0.20 0.17 0.13
0.00 0.00 0.00 0.00 0.00 0.00 0.00 0.00 0.00 0.00 0.00 0.00 0.00 0.00 0.00 0.00 0.01 0.01 0.01 0.01 0.01 0.01 0.00 0.00 0.00 0.00 0.00 0.02 0.04 0.03 0.03 0.04 0.05 0.06 0.09 0.11 0.11 0.09
0.00 0.00 0.00 0.00 0.00 0.00 0.00 0.00 0.00 0.00 0.00 0.00 0.00 0.00 0.00 0.00 0.00 0.00 0.01 0.01 0.01 0.01 0.02 0.02 0.01 0.00 0.00 0.00 0.01 0.02 0.02 0.01 0.01 0.02 0.04 0.04 0.04 0.02
0.00 0.00 0.00 0.00 0.00 0.00 0.00 0.00 0.00 0.00 0.00 0.00 0.00 0.00 0.00 0.00 0.00 0.00 0.01 0.02 0.02 0.02 0.03 0.04 0.04 0.02 0.01 0.00 0.00 0.00 0.01 0.00 0.00 0.01 0.01 0.02 0.01 0.01
0.00 0.00 0.00 0.00 0.00 0.00 0.00 0.00 0.00 0.00 0.00 0.00 0.00 0.00 0.00 0.00 0.00 0.00 0.00 0.00 0.01 0.02 0.02 0.03 0.05 0.06 0.05 0.02 0.01 0.01 0.00 0.00 0.00 0.00 0.00 0.00 0.01 0.00
0.00 0.00 0.00 0.00 0.00 0.00 0.00 0.00 0.00 0.00 0.00 0.00 0.00 0.00 0.00 0.00 0.00 0.00 0.00 0.00 0.01 0.01 0.02 0.02 0.03 0.05 0.05 0.06 0.04 0.02 0.02 0.01 0.00 0.00 0.00 0.00 0.00 0.00
0.00 0.00 0.00 0.00 0.00 0.00 0.00 0.00 0.00 0.00 0.00 0.00 0.00 0.00 0.00 0.00 0.00 0.00 0.00 0.00 0.01 0.01 0.02 0.02 0.02 0.03 0.05 0.07 0.07 0.06 0.04 0.02 0.01 0.00 0.00 0.00 0.00 0.00
0.00 0.00 0.00 0.00 0.00 0.00 0.00 0.00 0.00 0.00 0.00 0.00 0.00 0.00 0.00 0.00 0.00 0.00 0.00 0.00 0.00 0.00 0.00 0.01 0.02 0.04 0.05 0.06 0.07 0.08 0.07 0.05 0.03 0.02 0.01 0.00 0.00 0.00
MSLP
1010.56 1010.76 1011.02 1011.28 1011.49 1011.60 1011.59 1011.44 1011.18 1010.84 1010.47 1010.10 1009.78 1009.53 1009.35 1009.23 1009.17 1009.14 1009.12 1009.11 1009.11 1009.14 1009.23 1009.40 1009.68 1010.08 1010.60 1011.24 1011.95 1012.72 1013.49 1014.24 1014.93 1015.55 1016.08 1016.52 1016.89 1017.20
1010.58 1010.71 1010.89 1011.06 1011.20 1011.25 1011.20 1011.04 1010.80 1010.50 1010.18 1009.87 1009.61 1009.42 1009.29 1009.23 1009.21 1009.22 1009.24 1009.29 1009.35 1009.45 1009.61 1009.84 1010.17 1010.59 1011.10 1011.68 1012.33 1012.99 1013.65 1014.28 1014.86 1015.38 1015.83 1016.22 1016.55 1016.83
1010.71 1010.76 1010.86 1010.94 1010.99 1010.97 1010.87 1010.68 1010.44 1010.16 1009.89 1009.64 1009.44 1009.30 1009.23 1009.21 1009.24 1009.30 1009.38 1009.48 1009.61 1009.77 1009.99 1010.28 1010.64 1011.07 1011.56 1012.09 1012.65 1013.22 1013.76 1014.27 1014.74 1015.17 1015.54 1015.87 1016.17 1016.43
1010.95 1010.94 1010.96 1010.97 1010.93 1010.83 1010.67 1010.45 1010.19 1009.92 1009.67 1009.45 1009.30 1009.21 1009.18 1009.20 1009.27 1009.36 1009.49 1009.64 1009.82 1010.04 1010.31 1010.64 1011.02 1011.45 1011.91 1012.39 1012.87 1013.33 1013.77 1014.17 1014.54 1014.88 1015.19 1015.48 1015.74 1015.98
1011.29 1011.26 1011.22 1011.16 1011.05 1010.88 1010.66 1010.40 1010.11 1009.83 1009.58 1009.38 1009.24 1009.17 1009.16 1009.21 1009.29 1009.41 1009.56 1009.75 1009.96 1010.22 1010.53 1010.88 1011.26 1011.67 1012.10 1012.52 1012.92 1013.29 1013.62 1013.93 1014.22 1014.49 1014.75 1015.00 1015.25 1015.49
1011.74 1011.69 1011.62 1011.51 1011.34 1011.12 1010.84 1010.53 1010.21 1009.90 1009.63 1009.42 1009.28 1009.21 1009.20 1009.24 1009.33 1009.46 1009.61 1009.81 1010.04 1010.31 1010.62 1010.97 1011.34 1011.73 1012.10 1012.46 1012.78 1013.06 1013.31 1013.54 1013.76 1013.97 1014.20 1014.44 1014.69 1014.93
1012.25 1012.20 1012.11 1011.97 1011.77 1011.50 1011.18 1010.82 1010.46 1010.12 1009.83 1009.59 1009.43 1009.33 1009.30 1009.33 1009.39 1009.50 1009.65 1009.83 1010.05 1010.31 1010.61 1010.94 1011.28 1011.61 1011.93 1012.22 1012.46 1012.67 1012.84 1013.00 1013.16 1013.34 1013.54 1013.78 1014.03 1014.30
1012.79 1012.73 1012.64 1012.48 1012.25 1011.95 1011.60 1011.22 1010.82 1010.45 1010.13 1009.86 1009.66 1009.54 1009.47 1009.46 1009.49 1009.57 1009.68 1009.84 1010.03 1010.26 1010.52 1010.80 1011.09 1011.37 1011.63 1011.84 1012.01 1012.14 1012.25 1012.35 1012.46 1012.60 1012.79 1013.03 1013.30 1013.59
1013.30 1013.24 1013.14 1012.97 1012.73 1012.41 1012.04 1011.64 1011.23 1010.83 1010.48 1010.19 1009.96 1009.80 1009.70 1009.65 1009.64 1009.68 1009.75 1009.86 1010.00 1010.18 1010.39 1010.62 1010.85 1011.06 1011.24 1011.38 1011.48 1011.54 1011.58 1011.63 1011.70 1011.81 1011.99 1012.22 1012.51 1012.82
1013.76 1013.69 1013.57 1013.39 1013.14 1012.82 1012.45 1012.04 1011.62 1011.23 1010.86 1010.56 1010.31 1010.12 1009.99 1009.90 1009.85 1009.84 1009.86 1009.91 1010.00 1010.12 1010.27 1010.43 1010.58 1010.72 1010.83 1010.90 1010.93 1010.93 1010.91 1010.91 1010.94 1011.03 1011.19 1011.42 1011.71 1012.04
1014.16 1014.06 1013.93 1013.74 1013.48 1013.16 1012.79 1012.40 1011.99 1011.61 1011.25 1010.94 1010.69 1010.48 1010.32 1010.20 1010.11 1010.05 1010.02 1010.02 1010.04 1010.10 1010.17 1010.26 1010.34 1010.41 1010.45 1010.46 1010.43 1010.37 1010.31 1010.27 1010.26 1010.32 1010.46 1010.67 1010.96 1011.30
1014.51 1014.39 1014.23 1014.03 1013.77 1013.46 1013.11 1012.73 1012.35 1011.98 1011.65 1011.35 1011.10 1010.89 1010.71 1010.56 1010.44 1010.33 1010.24 1010.18 1010.13 1010.11 1010.12 1010.13 1010.14 1010.15 1010.13 1010.08 1010.01 1009.91 1009.82 1009.75 1009.72 1009.75 1009.86 1010.06 1010.33 1010.66
1014.85 1014.70 1014.53 1014.31 1014.05 1013.75 1013.42 1013.07 1012.72 1012.39 1012.08 1011.80 1011.56 1011.35 1011.16 1010.98 1010.81 1010.66 1010.51 1010.38 1010.27 1010.17 1010.10 1010.04 1009.99 1009.94 1009.87 1009.79 1009.69 1009.57 1009.46 1009.38 1009.33 1009.35 1009.44 1009.62 1009.87 1010.18
1015.21 1015.05 1014.86 1014.64 1014.38 1014.09 1013.78 1013.46 1013.14 1012.84 1012.56 1012.30 1012.07 1011.86 1011.65 1011.45 1011.24 1011.03 1010.83 1010.62 1010.43 1010.26 1010.12 1009.99 1009.88 1009.78 1009.68 1009.57 1009.46 1009.35 1009.24 1009.15 1009.11 1009.12 1009.21 1009.36 1009.59 1009.88
1015.62 1015.45 1015.25 1015.03 1014.78 1014.51 1014.22 1013.92 1013.64 1013.36 1013.11 1012.87 1012.64 1012.42 1012.20 1011.97 1011.72 1011.45 1011.18 1010.90 1010.64 1010.39 1010.17 1009.97 1009.81 1009.67 1009.54 1009.42 1009.31 1009.21 1009.12 1009.06 1009.03 1009.06 1009.14 1009.29 1009.51 1009.77
1016.06 1015.90 1015.71 1015.50 1015.26 1015.00 1014.73 1014.46 1014.20 1013.95 1013.71 1013.49 1013.27 1013.04 1012.80 1012.53 1012.23 1011.91 1011.57 1011.22 1010.88 1010.56 1010.26 1010.01 1009.79 1009.61 1009.46 1009.34 1009.24 1009.15 1009.09 1009.06 1009.07 1009.11 1009.21 1009.36 1009.56 1009.81
1016.51 1016.37 1016.20 1016.00 1015.77 1015.53 1015.29 1015.04 1014.80 1014.57 1014.35 1014.13 1013.92 1013.68 1013.42 1013.13 1012.79 1012.42 1012.02 1011.60 1011.19 1010.79 1010.43 1010.11 1009.84 1009.62 1009.44 1009.31 1009.22 1009.16 1009.13 1009.13 1009.16 1009.24 1009.35 1009.51 1009.71 1009.94
1016.91 1016.79 1016.64 1016.47 1016.27 1016.05 1015.82 1015.60 1015.38 1015.17 1014.97 1014.77 1014.56 1014.33 1014.06 1013.74 1013.38 1012.97 1012.52 1012.05 1011.57 1011.12 1010.69 1010.31 1009.99 1009.73 1009.53 1009.38 1009.29 1009.23 1009.22 1009.24 1009.29 1009.39 1009.52 1009.69 1009.89 1010.11
1017.18 1017.10 1016.99 1016.84 1016.66 1016.47 1016.28 1016.08 1015.89 1015.71 1015.54 1015.36 1015.17 1014.95 1014.68 1014.36 1013.98 1013.55 1013.07 1012.57 1012.06 1011.55 1011.08 1010.66 1010.29 1009.98 1009.75 1009.57 1009.45 1009.39 1009.37 1009.39 1009.45 1009.55 1009.68 1009.84 1010.03 1010.24
1017.28 1017.24 1017.16 1017.05 1016.91 1016.75 1016.59 1016.43 1016.28 1016.14 1016.00 1015.86 1015.70 1015.50 1015.25 1014.95 1014.58 1014.15 1013.67 1013.16 1012.63 1012.10 1011.60 1011.14 1010.74 1010.39 1010.11 1009.90 1009.74 1009.64 1009.60 1009.59 1009.63 1009.71 1009.82 1009.96 1010.13 1010.31
1017.18 1017.18 1017.13 1017.06 1016.96 1016.84 1016.73 1016.62 1016.52 1016.43 1016.34 1016.24 1016.12 1015.96 1015.75 1015.48 1015.14 1014.74 1014.28 1013.78 1013.26 1012.74 1012.23 1011.76 1011.33 1010.96 1010.64 1010.38 1010.17 1010.03 1009.92 1009.87 1009.85 1009.88 1009.94 1010.04 1010.17 1010.31
1016.88 1016.91 1016.90 1016.86 1016.81 1016.75 1016.69 1016.64 1016.59 1016.56 1016.53 1016.48 1016.41 1016.30 1016.14 1015.91 1015.62 1015.26 1014.85 1014.39 1013.91 1013.41 1012.93 1012.46 1012.03 1011.64 1011.30 1011.00 1010.74 1010.53 1010.36 1010.23 1010.14 1010.10 1010.09 1010.12 1010.18 1010.27
1016.40 1016.46 1016.49 1016.50 1016.50 1016.49 1016.49 1016.50 1016.53 1016.55 1016.58 1016.59 1016.57 1016.51 1016.40 1016.22 1015.98 1015.68 1015.32 1014.92 1014.50 1014.06 1013.62 1013.19 1012.78 1012.39 1012.04 1011.71 1011.41 1011.14 1010.90 1010.69 1010.51 1010.38 1010.28 1010.23 1010.22 1010.24
Thickness
5693 5694 5694 5695 5695 5695 5693 5692 5688 5685 5688 5697 5704 5710 5711 5711 5710 5710 5710 5709 5710 5710 5711 5710 5709 5705 5700 5694 5686 5679 5673 5667 5662 5658 5654 5650 5647 5644
5682 5683 5684 5685 5686 5687 5686 5686 5684 5680 5680 5689 5696 5702 5704 5704 5704 5703 5703 5702 5702 5702 5701 5699 5697 5694 5689 5683 5677 5671 5666 5662 5658 5654 5652 5649 5647 5645
5673 5673 5674 5675 5676 5678 5679 5679 5679 5677 5675 5683 5690 5696 5697 5697 5697 5697 5696 5694 5693 5693 5692 5689 5686 5683 5679 5675 5670 5664 5661 5658 5655 5653 5651 5650 5649 5648
5664 5663 5663 5665 5665 5667 5669 5670 5671 5673 5674 5676 5683 5688 5691 5692 5691 5690 5689 5688 5686 5685 5683 5680 5677 5674 5671 5667 5663 5660 5657 5655 5653 5652 5651 5651 5650 5650
5656 5654 5653 5654 5654 5656 5659 5661 5665 5669 5673 5675 5679 5684 5685 5686 5684 5683 5682 5681 5680 5678 5675 5673 5670 5668 5664 5661 5658 5656 5654 5653 5652 5652 5652 5652 5652 5652
5648 5647 5646 5646 5646 5649 5653 5654 5658 5663 5668 5671 5674 5677 5679 5680 5679 5676 5674 5674 5673 5673 5670 5667 5665 5662 5660 5657 5655 5654 5653 5653 5653 5653 5653 5654 5654 5654
5639 5639 5639 5640 5641 5643 5645 5647 5651 5656 5660 5664 5666 5668 5670 5671 5671 5671 5668 5666 5666 5666 5664 5663 5661 5659 5657 5655 5654 5653 5653 5653 5654 5655 5655 5656 5656 5656
5626 5627 5629 5629 5632 5635 5637 5640 5643 5646 5649 5653 5655 5657 5660 5662 5664 5663 5661 5659 5656 5659 5659 5657 5658 5657 5656 5655 5655 5654 5654 5654 5655 5656 5657 5657 5658 5657
5611 5612 5615 5616 5619 5622 5625 5629 5632 5635 5638 5640 5641 5644 5648 5651 5655 5655 5654 5653 5652 5653 5653 5651 5653 5653 5653 5653 5654 5653 5653 5653 5654 5655 5657 5657 5658 5658
5596 5597 5599 5600 5603 5607 5610 5614 5617 5621 5624 5627 5629 5631 5635 5640 5643 5645 5646 5645 5645 5646 5647 5644 5646 5647 5648 5648 5649 5650 5651 5650 5650 5651 5653 5654 5655 5656
5584 5585 5586 5587 5589 5594 5596 5599 5603 5607 5612 5615 5618 5621 5624 5627 5629 5632 5633 5634 5633 5635 5637 5638 5639 5640 5642 5642 5643 5644 5645 5645 5645 5646 5647 5649 5651 5652
5573 5574 5575 5576 5577 5580 5581 5583 5585 5589 5594 5601 5604 5607 5610 5613 5616 5617 5619 5620 5621 5623 5627 5629 5631 5632 5633 5636 5637 5637 5637 5637 5638 5639 5641 5643 5646 5647
5563 5563 5564 5566 5567 5569 5570 5570 5571 5576 5580 5584 5587 5590 5594 5598 5601 5604 5606 5608 5609 5612 5617 5619 5620 5622 5623 5626 5629 5630 5631 5631 5632 5633 5635 5637 5639 5641
5553 5552 5554 5556 5558 5559 5560 5561 5564 5566 5567 5569 5572 5574 5577 5581 5586 5591 5595 5598 5600 5602 5607 5609 5610 5611 5613 5616 5619 5622 5624 5626 5626 5627 5628 5629 5630 5632
5542 5544 5545 5546 5547 5548 5549 5551 5552 5552 5553 5553 5554 5557 5561 5566 5572 5576 5581 5585 5589 5593 5596 5598 5600 5602 5604 5606 5609 5612 5615 5617 5619 5621 5621 5621 5622 5623
5531 5532 5534 5535 5535 5536 5536 5537 5537 5538 5538 5538 5539 5543 5547 5551 5555 5559 5562 5566 5571 5577 5583 5586 5589 5591 5593 5597 5599 5601 5604 5607 5610 5612 5612 5612 5612 5612
5521 5520 5519 5519 5520 5520 5521 5521 5522 5523 5524 5525 5525 5528 5531 5535 5539 5543 5545 5548 5552 5557 5564 5571 5575 5579 5582 5585 5587 5590 5593 5596 5598 5600 5601 5599 5599 5601
5510 5507 5505 5504 5504 5504 5503 5504 5505 5505 5506 5508 5509 5511 5513 5517 5521 5526 5530 5533 5536 5541 5546 5553 5558 5563 5568 5573 5577 5578 5581 5584 5586 5589 5590 5588 5586 5587
5501 5498 5496 5494 5493 5491 5490 5489 5488 5488 5490 5491 5491 5493 5496 5500 5504 5508 5513 5518 5522 5527 5532 5537 5542 5546 5549 5554 5563 5568 5569 5571 5573 5575 5576 5578 5578 5578
5495 5492 5489 5486 5483 5481 5478 5476 5474 5474 5473 5473 5474 5475 5478 5481 5485 5489 5494 5499 5505 5512 5518 5523 5527 5531 5535 5540 5546 5553 5557 5559 5561 5562 5563 5563 5563 5566
5490 5486 5483 5479 5475 5472 5468 5465 5462 5460 5458 5457 5457 5458 5460 5463 5466 5470 5476 5481 5488 5494 5500 5506 5513 5519 5526 5531 5534 5538 5542 5546 5549 5551 5552 5552 5552 5553
5485 5481 5477 5473 5468 5464 5460 5456 5452 5449 5446 5444 5443 5443 5444 5446 5449 5453 5457 5463 5468 5475 5482 5490 5499 5508 5513 5518 5521 5524 5528 5532 5536 5540 5543 5546 5546 5546
5482 5477 5472 5467 5462 5458 5453 5449 5445 5441 5437 5434 5432 5430 5430 5431 5433 5436 5441 5446 5451 5457 5464 5472 5481 5489 5496 5501 5507 5511 5516 5519 5522 5525 5530 5535 5540 5544